Simultaneous Nadir Overpasses (SNOs) Predictions

Prediction of SNOs between NOAA-19 and NPP Satellite Orbit:

Table of predicted SNOs for the next 14.0 days since TLE Epoch: 8/1/2014
Index Date (NOAA-19) Time (NOAA-19) Lat,Lon (NOAA-19) SZA (NOAA-19 ) Date (NPP) Time (NPP) Lat,Lon (NPP) SZA (NPP ) Distance(km) Time Diff (sec)
1 08/06/2014 10:06:14 -81.00, 155.65 111.79 08/06/2014 10:07:22 -80.99, 155.78 111.85 2.30 68
2 08/06/2014 10:57:10 80.99, -36.84 68.19 08/06/2014 10:58:07 80.99, -36.94 68.17 1.74 57
3 08/06/2014 11:48:16 -80.98, 130.70 111.85 08/06/2014 11:48:51 -80.98, 130.68 111.87 0.42 35
4 08/06/2014 12:39:13 80.99, -62.16 68.18 08/06/2014 12:39:36 80.98, -62.03 68.15 2.18 23
5 08/06/2014 13:30:19 -80.98, 105.38 111.86 08/06/2014 13:30:21 -80.98, 105.22 111.84 2.95 2
6 08/06/2014 14:21:15 80.97, -87.10 68.12 08/06/2014 14:21:05 80.97, -87.13 68.13 0.50 10
7 08/06/2014 15:12:22 -80.97, 80.06 111.87 08/06/2014 15:11:50 -80.97, 80.12 111.86 1.03 32
8 08/06/2014 16:03:17 80.96,-112.05 68.06 08/06/2014 16:02:34 80.96,-112.23 68.10 3.15 43




NCC Satellite Simultaneous Nadir Overpasses (SNOs) Prediction Service
